Year,Month,Day,Hour,Minute,Value (Times are PST for temperature in C)
2016,09,14,16,28,17.30
2016,09,14,16,29,17.40
2016,09,14,16,31,17.50
2016,09,14,16,32,17.60
2016,09,14,16,33,17.60
2016,09,14,16,34,17.60
2016,09,14,16,35,17.70
2016,09,14,16,36,17.70
2016,09,14,16,37,17.70
2016,09,14,16,38,17.70
2016,09,14,16,39,17.70
2016,09,14,16,40,17.70
2016,09,14,16,41,17.70
2016,09,14,16,42,17.70
2016,09,14,16,43,17.70
2016,09,14,16,44,17.70
2016,09,14,16,45,17.70
2016,09,14,16,46,17.70
2016,09,14,16,47,17.70
2016,09,14,16,48,17.70
2016,09,14,16,49,17.70
2016,09,14,16,50,17.60
2016,09,14,16,51,17.60
2016,09,14,16,52,17.60
2016,09,14,16,53,17.60
2016,09,14,16,54,17.60
2016,09,14,16,55,17.60
2016,09,14,16,56,17.60
2016,09,14,16,57,17.50
2016,09,14,16,58,17.50
2016,09,14,16,59,17.50
2016,09,14,17,00,17.50
2016,09,14,17,01,17.50
2016,09,14,17,02,17.50
2016,09,14,17,03,17.40
2016,09,14,17,04,17.40
2016,09,14,17,05,17.30
2016,09,14,17,06,17.30
2016,09,14,17,07,17.20
2016,09,14,17,08,17.10
2016,09,14,17,09,17.00
2016,09,14,17,10,16.80
2016,09,14,17,11,16.70
2016,09,14,17,12,16.70
2016,09,14,17,13,16.60
2016,09,14,17,14,16.40
2016,09,14,17,15,16.30
2016,09,14,17,16,16.30
2016,09,14,17,17,16.20
2016,09,14,17,19,16.10
2016,09,14,17,21,15.90
2016,09,14,17,22,15.90
2016,09,14,17,23,15.80
2016,09,14,17,24,15.80
2016,09,14,17,26,15.80
2016,09,14,17,27,15.80
2016,09,14,17,28,15.70
2016,09,14,17,29,15.70
2016,09,14,17,31,15.70
2016,09,14,17,32,15.60
2016,09,14,17,33,15.60
2016,09,14,17,34,15.60
2016,09,14,17,36,15.40
2016,09,14,17,37,15.30
2016,09,14,17,38,15.30
2016,09,14,17,39,15.20
2016,09,14,17,41,15.10
2016,09,14,17,42,15.10
2016,09,14,17,43,15.00
2016,09,14,17,44,15.00
2016,09,14,17,46,14.90
2016,09,14,17,47,14.90
2016,09,14,17,48,14.80
2016,09,14,17,49,14.80
2016,09,14,17,51,14.80
2016,09,14,17,52,14.80
2016,09,14,17,53,14.70
2016,09,14,17,54,14.70
2016,09,14,17,56,14.60
2016,09,14,17,57,14.60
2016,09,14,17,58,14.50
2016,09,14,17,59,14.50
2016,09,14,18,01,14.40
2016,09,14,18,02,14.40
2016,09,14,18,03,14.30
2016,09,14,18,04,14.30
2016,09,14,18,06,14.20
2016,09,14,18,07,14.20
2016,09,14,18,08,14.20
2016,09,14,18,09,14.20
2016,09,14,18,11,14.20
2016,09,14,18,12,14.20
2016,09,14,18,13,14.20
2016,09,14,18,14,14.20
2016,09,14,18,16,14.20
2016,09,14,18,17,14.20
2016,09,14,18,18,14.20
2016,09,14,18,19,14.20
2016,09,14,18,21,14.20
2016,09,14,18,22,14.20
2016,09,14,18,23,14.20
2016,09,14,18,24,14.20
2016,09,14,18,25,14.20
2016,09,14,18,26,14.20
2016,09,14,18,27,14.20
2016,09,14,18,28,14.20
2016,09,14,18,29,14.20
2016,09,14,18,30,14.20
2016,09,14,18,31,14.20
2016,09,14,18,32,14.20
2016,09,14,18,33,14.20
2016,09,14,18,34,14.20
2016,09,14,18,36,14.10
2016,09,14,18,37,14.10
2016,09,14,18,38,14.10
2016,09,14,18,39,14.10
2016,09,14,18,40,14.00
2016,09,14,18,41,14.00
2016,09,14,18,42,14.00
2016,09,14,18,43,13.90
2016,09,14,18,44,13.90
2016,09,14,18,45,13.90
2016,09,14,18,46,13.80
2016,09,14,18,47,13.80
2016,09,14,18,48,13.80
2016,09,14,18,49,13.80
2016,09,14,18,50,13.70
2016,09,14,18,51,13.70
2016,09,14,18,52,13.70
2016,09,14,18,53,13.70
2016,09,14,18,54,13.70
2016,09,14,18,55,13.70
2016,09,14,18,56,13.70
2016,09,14,18,57,13.70
2016,09,14,18,58,13.70
2016,09,14,18,59,13.60
2016,09,14,19,00,13.60
2016,09,14,19,01,13.60
2016,09,14,19,02,13.60
2016,09,14,19,03,13.60
2016,09,14,19,04,13.50
2016,09,14,19,05,13.50
2016,09,14,19,06,13.50
2016,09,14,19,07,13.50
2016,09,14,19,08,13.40
2016,09,14,19,09,13.40
2016,09,14,19,10,13.40
2016,09,14,19,11,13.40
2016,09,14,19,12,13.40
2016,09,14,19,13,13.40
2016,09,14,19,14,13.40
2016,09,14,19,15,13.40
2016,09,14,19,16,13.40
2016,09,14,19,17,13.40
2016,09,14,19,18,13.40
2016,09,14,19,19,13.40
2016,09,14,19,20,13.40
2016,09,14,19,21,13.40
2016,09,14,19,22,13.40
2016,09,14,19,23,13.30
2016,09,14,19,24,13.30
2016,09,14,19,25,13.30
2016,09,14,19,26,13.30
2016,09,14,19,27,13.30
2016,09,14,19,28,13.30
2016,09,14,19,29,13.30
2016,09,14,19,30,13.30
2016,09,14,19,31,13.30
2016,09,14,19,32,13.30
2016,09,14,19,33,13.30
2016,09,14,19,34,13.30
2016,09,14,19,35,13.30
2016,09,14,19,36,13.30
2016,09,14,19,37,13.30
2016,09,14,19,38,13.30
2016,09,14,19,39,13.20
2016,09,14,19,40,13.20
2016,09,14,19,41,13.20
2016,09,14,19,42,13.20
2016,09,14,19,43,13.20
2016,09,14,19,44,13.20
2016,09,14,19,45,13.20
2016,09,14,19,46,13.20
2016,09,14,19,47,13.20
2016,09,14,19,48,13.20
2016,09,14,19,49,13.20
2016,09,14,19,50,13.20
2016,09,14,19,51,13.20
2016,09,14,19,53,13.20
2016,09,14,19,54,13.10
2016,09,14,19,56,13.10
2016,09,14,19,57,13.10
2016,09,14,19,58,13.10
2016,09,14,19,59,13.10
2016,09,14,20,01,13.10
2016,09,14,20,02,13.10
2016,09,14,20,03,13.10
2016,09,14,20,04,13.00
2016,09,14,20,06,13.00
2016,09,14,20,07,13.00
2016,09,14,20,08,13.00
2016,09,14,20,09,13.00
2016,09,14,20,11,13.00
2016,09,14,20,12,13.00
2016,09,14,20,13,13.00
2016,09,14,20,14,13.00
2016,09,14,20,16,12.90
2016,09,14,20,17,12.90
2016,09,14,20,18,12.90
2016,09,14,20,19,12.90
2016,09,14,20,21,12.90
2016,09,14,20,22,12.90
2016,09,14,20,23,12.90
2016,09,14,20,24,12.90
2016,09,14,20,26,12.90
2016,09,14,20,27,12.80
2016,09,14,20,28,12.80
2016,09,14,20,29,12.80
2016,09,14,20,31,12.80
2016,09,14,20,32,12.80
2016,09,14,20,33,12.80
2016,09,14,20,34,12.80
2016,09,14,20,36,12.80
2016,09,14,20,37,12.80
2016,09,14,20,38,12.80
2016,09,14,20,39,12.80
2016,09,14,20,41,12.80
2016,09,14,20,42,12.80
2016,09,14,20,43,12.80
2016,09,14,20,44,12.70
2016,09,14,20,45,12.70
2016,09,14,20,46,12.70
2016,09,14,20,47,12.70
2016,09,14,20,48,12.70
2016,09,14,20,49,12.60
2016,09,14,20,50,12.60
2016,09,14,20,51,12.60
2016,09,14,20,52,12.60
2016,09,14,20,53,12.60
2016,09,14,20,54,12.60
2016,09,14,20,55,12.60
2016,09,14,20,56,12.60
2016,09,14,20,57,12.50
2016,09,14,20,58,12.50
2016,09,14,20,59,12.50
2016,09,14,21,00,12.50
2016,09,14,21,01,12.50
2016,09,14,21,02,12.50
2016,09,14,21,03,12.50
2016,09,14,21,04,12.50
2016,09,14,21,06,12.50
2016,09,14,21,07,12.50
2016,09,14,21,08,12.50
2016,09,14,21,09,12.50
2016,09,14,21,10,12.50
2016,09,14,21,11,12.50
2016,09,14,21,12,12.50
2016,09,14,21,13,12.50
2016,09,14,21,14,12.50
2016,09,14,21,15,12.50
2016,09,14,21,16,12.50
2016,09,14,21,17,12.60
2016,09,14,21,18,12.60
2016,09,14,21,19,12.60
2016,09,14,21,20,12.60
2016,09,14,21,21,12.50
2016,09,14,21,22,12.50
2016,09,14,21,23,12.50
2016,09,14,21,24,12.50
2016,09,14,21,25,12.50
2016,09,14,21,26,12.50
2016,09,14,21,48,12.50
2016,09,14,21,49,12.50
2016,09,14,21,50,12.50
2016,09,14,21,51,12.50
2016,09,14,21,52,12.40
2016,09,14,21,53,12.40
2016,09,14,21,54,12.40
2016,09,14,21,55,12.40
2016,09,14,21,56,12.40
2016,09,14,21,57,12.40
2016,09,14,21,58,12.40
2016,09,14,21,59,12.30
2016,09,14,22,00,12.30
2016,09,14,22,01,12.30
2016,09,14,22,02,12.30
2016,09,14,22,03,12.30
2016,09,14,22,04,12.30
2016,09,14,22,06,12.30
2016,09,14,22,07,12.30
2016,09,14,22,08,12.30
2016,09,14,22,09,12.30
2016,09,14,22,10,12.30
2016,09,14,22,11,12.30
2016,09,14,22,12,12.30
2016,09,14,22,13,12.30
2016,09,14,22,14,12.30
2016,09,14,22,15,12.20
2016,09,14,22,16,12.20
2016,09,14,22,17,12.20
2016,09,14,22,18,12.20
2016,09,14,22,19,12.20
2016,09,14,22,20,12.20
2016,09,14,22,21,12.20
2016,09,14,22,22,12.20
2016,09,14,22,23,12.10
2016,09,14,22,24,12.10
2016,09,14,22,25,12.10
2016,09,14,22,26,12.10
2016,09,14,22,27,12.10
2016,09,14,22,28,12.10
2016,09,14,22,29,12.10
2016,09,14,22,30,12.10
2016,09,14,22,31,12.10
2016,09,14,22,32,12.10
2016,09,14,22,33,12.10
2016,09,14,22,34,12.20
2016,09,14,22,35,12.20
2016,09,14,22,36,12.20
2016,09,14,22,37,12.20
2016,09,14,22,38,12.20
2016,09,14,22,39,12.20
2016,09,14,22,40,12.20
2016,09,14,22,41,12.20
2016,09,14,22,42,12.20
2016,09,14,22,43,12.20
2016,09,14,22,44,12.20
2016,09,14,22,45,12.20
2016,09,14,22,46,12.20
2016,09,14,22,47,12.20
2016,09,14,22,48,12.20
2016,09,14,22,49,12.20
2016,09,14,22,50,12.20
2016,09,14,22,51,12.20
2016,09,14,22,52,12.20
2016,09,14,22,53,12.20
2016,09,14,22,54,12.20
2016,09,14,22,55,12.20
2016,09,14,22,56,12.20
2016,09,14,22,57,12.20
2016,09,14,22,58,12.10
2016,09,14,22,59,12.10
2016,09,14,23,00,12.10
2016,09,14,23,01,12.10
2016,09,14,23,02,12.10
2016,09,14,23,03,12.10
2016,09,14,23,04,12.00
2016,09,14,23,05,12.00
2016,09,14,23,06,12.00
2016,09,14,23,07,12.00
2016,09,14,23,08,12.00
2016,09,14,23,09,12.00
2016,09,14,23,10,12.00
2016,09,14,23,11,12.00
2016,09,14,23,12,12.10
2016,09,14,23,13,12.10
2016,09,14,23,14,12.10
2016,09,14,23,15,12.10
2016,09,14,23,16,12.10
2016,09,14,23,17,12.20
2016,09,14,23,19,12.20
2016,09,14,23,21,12.30
2016,09,14,23,22,12.30
2016,09,14,23,23,12.30
2016,09,14,23,24,12.30
2016,09,14,23,26,12.30
2016,09,14,23,27,12.40
2016,09,14,23,28,12.40
2016,09,14,23,29,12.40
2016,09,14,23,31,12.40
2016,09,14,23,32,12.40
2016,09,14,23,33,12.30
2016,09,14,23,34,12.30
2016,09,14,23,36,12.30
2016,09,14,23,37,12.30
2016,09,14,23,38,12.30
2016,09,14,23,39,12.30
2016,09,14,23,41,12.30
2016,09,14,23,42,12.30
2016,09,14,23,43,12.30
2016,09,14,23,44,12.30
2016,09,14,23,46,12.30
2016,09,14,23,47,12.30
2016,09,14,23,48,12.30
2016,09,14,23,49,12.30
2016,09,14,23,51,12.40
2016,09,14,23,52,12.40
2016,09,14,23,53,12.50
2016,09,14,23,54,12.50
2016,09,14,23,56,12.60
2016,09,14,23,57,12.60
2016,09,14,23,58,12.60
2016,09,14,23,59,12.60
